When you browse on this site, cookies collect data to enhance your experience and personalize the content and advertising you see.
Visit our Privacy Policy to learn more. By continuing to use the site, you agree to this use of cookies and data.
  • Em Portugal
  • Lista de países
  • Para 7 dias
  • Temperatura da água
  • Mapa do tempo
  • Widgets de tempo
  • user-avatar
    Iniciar Sessão

    Previsão horária em Babeevo

    Hoje, 21 Agosto, Quarta-feira

    Tempo Temperatura Precipitação Vento Pressão Humidade
    00:00 +18°C° 0 mm 1 m/s 756 mmHg 92%
    01:00 +18°C° 0 mm 1 m/s 756 mmHg 92%
    02:00 +18°C° 0 mm 1 m/s 756 mmHg 93%
    03:00 +18°C° 0 mm 1 m/s 756 mmHg 93%
    04:00 +18°C° 0 mm 1 m/s 756 mmHg 93%
    05:00 +18°C° 0 mm 1 m/s 756 mmHg 92%
    06:00 +18°C° 0 mm 1 m/s 757 mmHg 91%
    07:00 +20°C° 0 mm 1 m/s 757 mmHg 84%
    08:00 +22°C° 0 mm 1 m/s 757 mmHg 77%
    09:00 +24°C° 0 mm 1 m/s 757 mmHg 69%
    10:00 +25°C° 0 mm 1 m/s 757 mmHg 66%
    11:00 +26°C° 0 mm 1 m/s 757 mmHg 62%
    12:00 +27°C° 0 mm 2 m/s 757 mmHg 59%
    13:00 +28°C° 0 mm 2 m/s 757 mmHg 58%
    14:00 +28°C° 0 mm 2 m/s 756 mmHg 58%
    15:00 +28°C° 0 mm 2 m/s 756 mmHg 58%
    16:00 +28°C° 0 mm 1 m/s 756 mmHg 63%
    17:00 +27°C° 0 mm 1 m/s 756 mmHg 67%
    18:00 +27°C° 0 mm 1 m/s 756 mmHg 72%
    19:00 +25°C° 0 mm 1 m/s 756 mmHg 77%
    20:00 +21°C° 0 mm 0 m/s 756 mmHg 83%
    21:00 +20°C° 0 mm 0 m/s 756 mmHg 88%
    22:00 +20°C° 0 mm 0 m/s 756 mmHg 89%
    23:00 +21°C° 0 mm 1 m/s 756 mmHg 90%

    Amanhã, 22 Agosto, Quinta-feira

    Tempo Temperatura Precipitação Vento Pressão Humidade
    00:00 +21°C° 0 mm 1 m/s 756 mmHg 91%
    01:00 +21°C° 0 mm 1 m/s 756 mmHg 92%
    02:00 +20°C° 0 mm 1 m/s 756 mmHg 92%
    03:00 +20°C° 0 mm 1 m/s 756 mmHg 92%
    04:00 +20°C° 0 mm 1 m/s 755 mmHg 91%
    05:00 +20°C° 0 mm 1 m/s 755 mmHg 91%
    06:00 +20°C° 0 mm 1 m/s 755 mmHg 90%
    07:00 +22°C° 0 mm 1 m/s 755 mmHg 84%
    08:00 +23°C° 0 mm 1 m/s 755 mmHg 77%
    09:00 +25°C° 0 mm 1 m/s 755 mmHg 70%
    10:00 +26°C° 0 mm 1 m/s 755 mmHg 67%
    11:00 +27°C° 0 mm 1 m/s 755 mmHg 63%
    12:00 +28°C° 0 mm 1 m/s 755 mmHg 60%
    13:00 +28°C° 0.1 mm 1 m/s 754 mmHg 59%
    14:00 +29°C° 0.1 mm 2 m/s 754 mmHg 58%
    15:00 +29°C° 0.1 mm 2 m/s 754 mmHg 57%
    16:00 +28°C° 0.1 mm 1 m/s 753 mmHg 62%
    17:00 +27°C° 0.1 mm 1 m/s 753 mmHg 67%
    18:00 +26°C° 0.1 mm 1 m/s 753 mmHg 71%
    19:00 +25°C° 0.3 mm 1 m/s 753 mmHg 76%
    20:00 +23°C° 0.3 mm 1 m/s 754 mmHg 81%
    21:00 +22°C° 0.3 mm 1 m/s 754 mmHg 86%
    22:00 +21°C° 0.1 mm 2 m/s 754 mmHg 89%
    23:00 +20°C° 0.1 mm 2 m/s 754 mmHg 92%

    Depois de amanhã, 23 Agosto, Sexta-feira

    Tempo Temperatura Precipitação Vento Pressão Humidade
    00:00 +20°C° 0.1 mm 3 m/s 755 mmHg 95%
    01:00 +19°C° 0 mm 3 m/s 755 mmHg 94%
    02:00 +18°C° 0 mm 4 m/s 755 mmHg 93%
    03:00 +17°C° 0 mm 4 m/s 756 mmHg 92%
    04:00 +15°C° 0 mm 4 m/s 756 mmHg 92%
    05:00 +15°C° 0 mm 4 m/s 756 mmHg 91%
    06:00 +14°C° 0 mm 3 m/s 756 mmHg 91%
    07:00 +16°C° 0 mm 3 m/s 756 mmHg 86%
    08:00 +17°C° 0 mm 3 m/s 757 mmHg 80%
    09:00 +18°C° 0 mm 3 m/s 757 mmHg 75%
    10:00 +20°C° 0 mm 3 m/s 757 mmHg 68%
    11:00 +21°C° 0 mm 3 m/s 757 mmHg 61%
    12:00 +22°C° 0 mm 3 m/s 757 mmHg 54%
    13:00 +24°C° 0 mm 3 m/s 757 mmHg 53%
    14:00 +24°C° 0 mm 3 m/s 757 mmHg 51%
    15:00 +24°C° 0 mm 3 m/s 757 mmHg 49%
    16:00 +22°C° 0 mm 3 m/s 757 mmHg 55%
    17:00 +21°C° 0 mm 2 m/s 757 mmHg 61%
    18:00 +20°C° 0 mm 2 m/s 757 mmHg 67%
    19:00 +19°C° 0 mm 2 m/s 757 mmHg 70%
    20:00 +19°C° 0 mm 1 m/s 757 mmHg 73%
    21:00 +18°C° 0 mm 1 m/s 757 mmHg 76%
    22:00 +16°C° 0 mm 1 m/s 757 mmHg 78%
    23:00 +15°C° 0 mm 1 m/s 757 mmHg 80%

    24 Agosto, Sábado

    Tempo Temperatura Precipitação Vento Pressão Humidade
    00:00 +15°C° 0 mm 1 m/s 758 mmHg 83%
    01:00 +14°C° 0 mm 1 m/s 758 mmHg 84%
    02:00 +14°C° 0 mm 1 m/s 758 mmHg 86%
    03:00 +13°C° 0 mm 1 m/s 758 mmHg 88%
    04:00 +13°C° 0 mm 1 m/s 758 mmHg 88%
    05:00 +14°C° 0 mm 1 m/s 758 mmHg 88%
    06:00 +14°C° 0 mm 1 m/s 758 mmHg 88%
    07:00 +16°C° 0 mm 1 m/s 758 mmHg 81%
    08:00 +19°C° 0 mm 1 m/s 758 mmHg 74%
    09:00 +21°C° 0 mm 1 m/s 758 mmHg 67%
    10:00 +22°C° 0 mm 1 m/s 758 mmHg 61%
    11:00 +23°C° 0 mm 2 m/s 758 mmHg 56%
    12:00 +24°C° 0 mm 2 m/s 758 mmHg 51%
    13:00 +24°C° 0 mm 2 m/s 758 mmHg 49%
    14:00 +24°C° 0 mm 2 m/s 758 mmHg 48%
    15:00 +25°C° 0 mm 2 m/s 757 mmHg 47%
    16:00 +24°C° 0 mm 2 m/s 757 mmHg 52%
    17:00 +23°C° 0 mm 2 m/s 757 mmHg 58%
    18:00 +22°C° 0 mm 1 m/s 757 mmHg 63%
    19:00 +21°C° 0 mm 1 m/s 757 mmHg 67%
    20:00 +19°C° 0 mm 1 m/s 757 mmHg 70%
    21:00 +16°C° 0 mm 1 m/s 756 mmHg 73%
    22:00 +16°C° 0 mm 1 m/s 756 mmHg 75%
    23:00 +15°C° 0 mm 1 m/s 756 mmHg 76%

    25 Agosto, Domingo

    Tempo Temperatura Precipitação Vento Pressão Humidade
    00:00 +15°C° 0 mm 2 m/s 756 mmHg 78%
    01:00 +15°C° 0 mm 2 m/s 756 mmHg 80%
    02:00 +14°C° 0 mm 2 m/s 756 mmHg 83%
    03:00 +14°C° 0 mm 2 m/s 755 mmHg 86%
    04:00 +14°C° 0 mm 2 m/s 755 mmHg 86%
    05:00 +14°C° 0 mm 2 m/s 755 mmHg 86%
    06:00 +14°C° 0 mm 2 m/s 755 mmHg 86%
    07:00 +16°C° 0 mm 3 m/s 755 mmHg 80%
    08:00 +18°C° 0 mm 3 m/s 754 mmHg 74%
    09:00 +20°C° 0 mm 3 m/s 754 mmHg 68%
    10:00 +21°C° 0 mm 4 m/s 754 mmHg 64%
    11:00 +22°C° 0 mm 4 m/s 754 mmHg 60%
    12:00 +23°C° 0 mm 4 m/s 753 mmHg 56%
    13:00 +23°C° 0.2 mm 4 m/s 753 mmHg 58%
    14:00 +23°C° 0.2 mm 5 m/s 753 mmHg 60%
    15:00 +23°C° 0.2 mm 5 m/s 753 mmHg 61%
    16:00 +21°C° 0.5 mm 4 m/s 753 mmHg 71%
    17:00 +19°C° 0.5 mm 4 m/s 753 mmHg 81%
    18:00 +17°C° 0.5 mm 3 m/s 753 mmHg 91%
    19:00 +17°C° 0.1 mm 3 m/s 753 mmHg 91%
    20:00 +16°C° 0.1 mm 3 m/s 753 mmHg 91%
    21:00 +16°C° 0.1 mm 2 m/s 754 mmHg 92%
    22:00 +14°C° 0 mm 3 m/s 754 mmHg 92%
    23:00 +13°C° 0 mm 3 m/s 754 mmHg 92%

    26 Agosto, Segunda-feira

    Tempo Temperatura Precipitação Vento Pressão Humidade
    00:00 +12°C° 0 mm 3 m/s 755 mmHg 93%
    01:00 +11°C° 0 mm 3 m/s 755 mmHg 94%
    02:00 +11°C° 0 mm 3 m/s 756 mmHg 95%
    03:00 +10°C° 0 mm 3 m/s 756 mmHg 96%
    04:00 +10°C° 0 mm 3 m/s 756 mmHg 96%
    05:00 +10°C° 0 mm 3 m/s 757 mmHg 96%
    06:00 +10°C° 0 mm 3 m/s 757 mmHg 96%
    07:00 +11°C° 0 mm 3 m/s 758 mmHg 91%
    08:00 +12°C° 0 mm 3 m/s 758 mmHg 85%
    09:00 +13°C° 0 mm 3 m/s 759 mmHg 79%
    10:00 +14°C° 0 mm 3 m/s 759 mmHg 73%
    11:00 +16°C° 0 mm 3 m/s 759 mmHg 67%
    12:00 +17°C° 0 mm 3 m/s 759 mmHg 61%
    13:00 +18°C° 0 mm 3 m/s 759 mmHg 58%
    14:00 +18°C° 0 mm 3 m/s 759 mmHg 56%
    15:00 +19°C° 0 mm 3 m/s 759 mmHg 53%
    16:00 +18°C° 0 mm 3 m/s 759 mmHg 58%
    17:00 +18°C° 0 mm 2 m/s 759 mmHg 63%
    18:00 +17°C° 0 mm 2 m/s 759 mmHg 68%
    19:00 +15°C° 0 mm 2 m/s 759 mmHg 72%
    20:00 +13°C° 0 mm 2 m/s 759 mmHg 77%
    21:00 +12°C° 0 mm 1 m/s 760 mmHg 81%
    22:00 +11°C° 0 mm 1 m/s 760 mmHg 82%
    23:00 +11°C° 0 mm 1 m/s 760 mmHg 83%
    Mostrar mais